Weather in Monopoli

Italy     40°56′53″N   17°17′26″E
temp.,
°C
wind,
m/s
gust,
m/s
humid.,
%
clouds,
%
prec.,
mm/h
press.,
hPa
HPBL,
m
16 april, fri
fri1623:00+10nw224677 0.0 1020382
02:00+9nw3452100 0.0 1019449
05:00+10n455588 0.0 1018733
08:00+11n345285 0.0 1018999
11:00+12nne4553100 0.0 10181043
14:00+11e1255100 0.2 10171049
17:00+10e1265100 0.3 1016622
20:00+8sw0175100 1.0 1016269
17 april, sat
sat1723:00+8nw458499 1.7 1015365
02:00+10n567298 1.7 1014656
05:00+11n5664100 0.0 1012835
08:00+12nnw676192 0.0 10111178
11:00+11nw8872100 0.0 1011706
14:00+12nnw897099 0.0 1010829
17:00+11n567590 0.0 1010710
20:00+11nnw4670100 0.0 1010551
18 april, sun
sun1823:00+12nnw6861100 0.0 1011880
02:00+10wnw686840 0.0 1011542
05:00+10w4666100 0.0 1011277
08:00+11wsw4563100 0.0 1013335
11:00+10wsw3373100 0.2 1014306
14:00+12nw2367100 0.4 1013595
17:00+10nne328175 0.1 1013343
20:00+10ese348189 0.4 1013378
19 april, mon
mon1923:00+11e2380100 0.5 1013420
02:00+11ssw2283100 3.4 1011103
05:00+9wnw6890100 0.7 1011390
08:00+10wnw7987100 1.9 1011576
11:00+11nw91077100 0.5 10121014
14:00+12nw8870100 1.1 10121043
17:00+13nw886982 0.1 10121023
20:00+12wnw45700 0.1 1013596
20 april, tue
tue2023:00+11w68736 0.0 1015373
02:00+10w577469 0.0 1015329
05:00+10wsw45735 0.0 1015177
08:00+12wsw45630 0.0 1016283
11:00+14nnw34573 0.0 1016713
14:00+14ne436537 0.0 1016389
17:00+14se446432 0.1 1015438
20:00+13sse4675100 0.4 1016166